Location: Petruro
(41.0333°N, 14.7833°E)
Time: 15:24:42
(UTC+00:00)

CZ-4C R/B - Pass Details

Date: 20 June 2021
Orbit: 464 x 632 km, 98.0° (Epoch: 31 July)

Event Time Altitude Azimuth Distance (km) Brightness Sun altitude
Exits shadow 02:19:47 12° 190° (S) 1,530 5.1 -10.9°
Maximum altitude 02:22:50 41° 260° (W) 690 3.4 -10.5°
Drops below altitude 10° 02:26:08 10° 332° (NNW) 1,626 5.9 -10.1°
Sets 02:28:17 0° 340° (NNW) 2,514 7.0 -9.8°
